Location: Landeleau
(48.2273°N, 3.7285°W)
Time: 17:47:17
(UTC+00:00)

USA 234 - Pass Details

Date: 30 March 2020
Orbit: 1102 x 1106 km, 123.0° (Epoch: 14 May)

Event Time Altitude Azimuth Distance (km) Brightness Sun altitude
Rises 21:51:18 0° 57° (ENE) 3,926 6.1 -28.4°
Reaches altitude 10° 21:53:49 10° 54° (NE) 2,967 5.4 -28.7°
Maximum altitude 22:00:12 59° 338° (NNW) 1,263 3.7 -29.4°
Drops below altitude 10° 22:06:36 10° 261° (W) 2,962 5.8 -30.1°
Sets 22:09:06 0° 257° (WSW) 3,919 6.5 -30.4°
